Logan, UT

8:54 AM MST on December 08, 2019 (GMT -0700)
Logan-Cache

Weather History for KLGU - October, 2019

Change the Weather History Date:

Tuesday, October 8, 2019

  Actual Average Record
Temperature  
Mean Temperature 50 °F -  
Max Temperature 71 °F 66 °F 83 °F (1979)
Min Temperature 28 °F 35 °F 21 °F (2012)
Degree Days  
Heating Degree Days 16    
Moisture  
Dew Point 30 °F    
Average Humidity 57    
Maximum Humidity 89    
Minimum Humidity 18    
Precipitation  
Precipitation 0.00 in - - ()
Sea Level Pressure  
Sea Level Pressure 29.87 in    
Wind  
Wind Speed 2 mph ()    
Max Wind Speed 12 mph    
Max Gust Speed -    
Visibility 10.0 miles    
Events      
Averages and records for this station are not official NWS values.
T = Trace of Precipitation, MM = Missing Value Source: Averaged Metar Reports

Daily Weather History Graph

Daily Weather History Graph

Search for Another Location

Airport or City:

Astronomy

Oct. 08, 2019 Rise Set
Actual Time 7:31 AM MDT 6:57 PM MDT
Civil Twilight 7:03 AM MDT 7:25 PM MDT
Nautical Twilight 6:31 AM MDT 7:57 PM MDT
Astronomical Twilight 5:59 AM MDT 8:29 PM MDT
Moon 5:03 PM MDT 2:18 AM MDT
Length of Visible Light 12h 21m
Length of Day
11h 25m
Waxing Gibbous, 78% of the Moon is Illuminated
Oct 8
Waxing Gibbous
Oct 13
Full
Oct 21
Last Quarter
Oct 27
New
Nov 4
First Quarter

Hourly Weather History & Observations

Time (MDT) Temp. Windchill Dew Point Humidity Pressure Visibility Wind Dir Wind Speed Gust Speed Precip Events Conditions
12:51 AM 37.0 °F - 30.9 °F 79% 30.04 in 10.0 mi Calm Calm - N/A   Clear
1:51 AM 34.0 °F 31.0 °F 28.0 °F 79% 30.03 in 10.0 mi NNE 3.5 mph - N/A   Clear
2:51 AM 32.0 °F 28.7 °F 28.0 °F 85% 30.02 in 10.0 mi North 3.5 mph - N/A   Clear
3:51 AM 33.1 °F - 30.0 °F 89% 29.98 in 10.0 mi Calm Calm - N/A   Clear
4:51 AM 30.0 °F 26.5 °F 26.1 °F 85% 29.99 in 10.0 mi North 3.5 mph - N/A   Clear
5:51 AM 32.0 °F - 27.0 °F 82% 29.97 in 10.0 mi Calm Calm - N/A   Clear
6:51 AM 28.9 °F 25.2 °F 26.1 °F 89% 30.00 in 10.0 mi North 3.5 mph - N/A   Clear
7:51 AM 32.0 °F - 27.0 °F 82% 30.00 in 10.0 mi Calm Calm - N/A   Clear
8:51 AM 34.0 °F 31.0 °F 30.9 °F 89% 30.00 in 10.0 mi WNW 3.5 mph - N/A   Clear
9:51 AM 43.0 °F - 33.1 °F 68% 29.98 in 10.0 mi Calm Calm - N/A   Clear
10:51 AM 48.9 °F - 34.0 °F 56% 29.95 in 10.0 mi Calm Calm - N/A   Clear
11:51 AM 54.0 °F - 34.0 °F 47% 29.92 in 10.0 mi Calm Calm - N/A   Clear
12:51 PM 62.1 °F - 32.0 °F 32% 29.88 in 10.0 mi Calm Calm - N/A   Clear
1:51 PM 68.0 °F - 30.0 °F 24% 29.85 in 10.0 mi Calm Calm - N/A   Clear
2:51 PM 69.1 °F - 27.0 °F 21% 29.81 in 10.0 mi Variable 4.6 mph - N/A   Clear
3:51 PM 71.1 °F - 25.0 °F 18% 29.79 in 10.0 mi SW 9.2 mph - N/A   Clear
4:51 PM 69.1 °F - 27.0 °F 21% 29.78 in 10.0 mi SSW 11.5 mph - N/A   Clear
5:51 PM 66.9 °F - 28.0 °F 23% 29.77 in 10.0 mi South 10.4 mph - N/A   Clear
6:51 PM 63.0 °F - 30.0 °F 29% 29.75 in 10.0 mi SE 6.9 mph - N/A   Clear
7:51 PM 55.0 °F - 35.1 °F 47% 29.75 in 10.0 mi West 5.8 mph - N/A   Clear
8:51 PM 55.9 °F - 32.0 °F 40% 29.72 in 10.0 mi Calm Calm - N/A   Clear
9:51 PM 46.9 °F - 35.1 °F 63% 29.71 in 10.0 mi Calm Calm - N/A   Clear
10:51 PM 51.1 °F - 34.0 °F 52% 29.65 in 10.0 mi SE 4.6 mph - N/A   Clear
11:51 PM 44.1 °F - 35.1 °F 71% 29.64 in 10.0 mi Calm Calm - N/A   Clear